Terminal Aerodrome Forecast
Issued by NWS Tuscon, AZ

Home | Current Version | Previous Version | Text Only | Print | Product List | Glossary On
Versions: 1 2 3 4 5 6 7 8 9 10 11 12 13 14 15 16 17
925
FTUS45 KTWC 242337
TAFDUG
TAF
KDUG 242337Z 2500/2524 34012G20KT P6SM SCT080 SCT120
     FM250100 22010KT P6SM VCSH SCT060 BKN100
     FM250500 36007KT P6SM SCT120 BKN180
     FM251000 VRB03KT P6SM FEW120 BKN180
     FM252000 25010KT P6SM SCT070 SCT140=

USA.gov is the U.S. government's official web portal to all federal, state and local government web resources and services.